DW4998 Weather Reports


time (UTC)temp
F
wind
direction
speed
knots
gust
knots
rain 1hr
in
rain 24hr
in
rain mn
in
humidity
%
barometer
mb
20260506033046 55 156 1.7 3.5 0.00 0.26 0.00 81 1004.9
20260506032018 55 200 1.7 3.5 0.00 0.26 0.00 80 1004.9
20260506031040 55 192 0.9 3.5 0.00 0.26 0.00 80 1005.1
20260506030032 55 354 1.7 3.5 0.00 0.26 0.00 81 1005.2
20260506025024 56 241 0.9 3.5 0.00 0.26 0.00 80 1005.3
20260506024045 56 238 0.9 3.5 0.00 0.26 0.00 80 1005.5
20260506023037 57 238 1.7 3.5 0.00 0.26 0.00 78 1005.5
20260506022029 57 259 2.6 4.3 0.00 0.26 0.00 77 1005.6
20260506021041 57 2 1.7 3.5 0.00 0.26 0.00 78 1005.7
20260506015034 57 160 1.7 3.5 0.00 0.26 0.00 76 1005.5
20260506014026 57 204 1.7 5.2 0.00 0.26 0.00 77 1005.4
20260506013038 57 165 2.6 5.2 0.00 0.26 0.00 77 1005.5
20260506012040 57 144 2.6 6.1 0.00 0.26 0.00 78 1005.5
20260506011031 57 157 4.3 6.1 0.00 0.26 0.00 79 1005.6
20260506010023 57 156 2.6 4.3 0.00 0.26 0.00 78 1005.6
20260506005046 57 30 2.6 5.2 0.00 0.26 0.00 80 1005.7
20260506004037 57 113 2.6 4.3 0.00 0.26 0.00 79 1005.8
20260506003029 56 175 1.7 4.3 0.00 0.26 0.00 81 1006.1
20260506002021 56 173 2.6 5.2 0.00 0.26 0.00 83 1006.2
20260506001043 56 226 0.9 4.3 0.00 0.26 0.00 83 1006.2
20260506000052 57 181 2.6 4.3 0.00 0.26 0.00 81 1006.2
20260505235012 57 241 2.6 3.5 0.00 0.00 0.00 80 1006.2
20260505234037 57 56 1.7 3.5 0.00 0.26 0.00 80 1006.2
20260505233054 58 36 2.6 4.3 0.00 0.26 0.00 81 1006.3
20260505232045 58 164 1.7 4.3 0.00 0.26 0.00 82 1006.3
20260505231017 58 144 2.6 4.3 0.00 0.26 0.00 83 1006.5
20260505230039 57 123 1.7 3.5 0.00 0.26 0.00 83 1006.7
20260505225030 57 156 0.9 3.5 0.00 0.26 0.00 83 1006.7
20260505224022 57 198 0.9 2.6 0.00 0.26 0.00 83 1006.7
20260505223044 57 148 1.7 3.5 0.00 0.26 0.00 82 1006.8
20260505222056 57 125 1.7 3.5 0.00 0.26 0.00 83 1006.7
20260505221028 57 238 1.7 4.3 0.00 0.26 0.00 82 1006.7
20260505220019 57 110 1.7 4.3 0.00 0.26 0.00 83 1006.7
20260505215042 57 90 0.9 3.5 0.00 0.26 0.26 84 1006.6
20260505214034 57 209 0.9 3.5 0.00 0.26 0.26 85 1006.6
20260505213026 57 148 0.9 4.3 0.00 0.26 0.26 87 1006.5
20260505212037 57 147 0.9 3.5 0.00 0.26 0.26 87 1006.6
20260505211039 57 142 1.7 2.6 0.00 0.26 0.26 86 1006.5
20260505210031 57 143 0.9 2.6 0.00 0.26 0.26 87 1006.6
20260505205022 58 65 0.0 1.7 0.00 0.26 0.26 86 1006.5
20260505204105 58 121 0.9 2.6 0.00 0.26 0.26 87 1006.3
20260505203035 58 134 0.9 2.6 0.00 0.26 0.26 87 1006.3
20260505202026 58 135 0.9 3.5 0.00 0.26 0.26 86 1006.3
20260505201017 58 129 1.7 4.3 0.00 0.26 0.26 86 1006.3
20260505200039 58 128 1.7 5.2 0.00 0.26 0.26 86 1006.3
20260505195030 57 138 0.9 2.6 0.00 0.26 0.26 88 1006.1
20260505194022 58 228 0.9 1.7 0.00 0.26 0.26 87 1006.1
20260505193044 57 147 1.7 2.6 0.00 0.26 0.26 88 1006.0
20260505192036 57 132 0.9 2.6 0.00 0.26 0.26 89 1006.0
20260505191028 58 143 0.9 1.7 0.00 0.26 0.26 89 1006.1
20260505190038 58 168 0.9 1.7 0.00 0.26 0.26 89 1005.9
20260505185040 58 261 0.9 2.6 0.00 0.26 0.26 90 1005.9
20260505184031 58 73 0.0 1.7 0.00 0.26 0.26 90 1005.9
20260505183023 58 137 0.9 1.7 0.00 0.26 0.26 92 1006.0
20260505182045 58 144 0.9 2.6 0.05 0.26 0.26 92 1006.0
20260505181036 58 171 0.0 1.7 0.11 0.26 0.26 92 1006.0
20260505180027 57 137 1.7 4.3 0.15 0.26 0.26 92 1005.9
20260505175059 57 184 1.7 3.5 0.15 0.26 0.26 91 1006.0
20260505174040 57 197 1.7 3.5 0.17 0.26 0.26 91 1006.0
20260505173052 58 235 2.6 4.3 0.19 0.26 0.26 90 1005.9
20260505172024 59 209 1.7 3.5 0.15 0.21 0.21 90 1005.9
20260505171045 60 204 3.5 7.0 0.09 0.15 0.15 89 1005.8
20260505170037 61 139 0.9 2.6 0.05 0.11 0.11 86 1005.5
20260505165028 62 153 0.0 1.7 0.04 0.11 0.11 79 1005.4
20260505164020 62 0.0 0.9 0.02 0.09 0.09 81 1005.3
20260505163041 62 346 0.0 1.7 0.01 0.07 0.07 77 1005.5
20260505162033 64 329 0.9 2.6 0.00 0.07 0.07 73 1005.6
20260505161025 64 312 0.9 2.6 0.00 0.07 0.07 73 1005.5
20260505153021 64 116 0.9 3.5 0.00 0.07 0.07 71 1005.4
20260505152123 64 331 0.9 3.5 0.00 0.07 0.07 69 1005.4
20260505151036 62 339 0.9 2.6 0.00 0.07 0.07 73 1005.4
20260505124029 61 136 0.0 1.7 0.02 0.06 0.06 75 1006.8
20260505123021 61 44 0.0 2.6 0.02 0.06 0.06 76 1006.9
20260505122043 61 9 0.0 1.7 0.02 0.06 0.06 77 1006.9
20260505121035 61 256 0.0 1.7 0.01 0.05 0.05 77 1007.1
20260505120026 61 56 0.0 1.7 0.01 0.05 0.05 76 1007.1
20260505115018 62 319 0.0 1.7 0.01 0.05 0.05 74 1007.1
20260505114100 63 322 0.9 1.7 0.00 0.04 0.04 72 1007.1
20260505113031 63 353 0.9 2.6 0.00 0.04 0.04 70 1007.1
20260505112023 64 339 1.7 4.3 0.00 0.04 0.04 69 1007.2
20260505111046 63 360 0.9 2.6 0.00 0.04 0.04 69 1007.2
20260505102037 63 352 1.7 4.3 0.00 0.04 0.04 67 1007.4
20260505101029 63 316 1.7 3.5 0.00 0.04 0.04 68 1007.4
20260505100020 62 251 1.7 3.5 0.00 0.04 0.04 71 1007.5
20260505095042 62 234 1.7 3.5 0.00 0.04 0.04 71 1007.7
20260505094054 61 186 0.9 2.6 0.01 0.04 0.04 71 1007.6
20260505093025 62 242 0.9 3.5 0.01 0.04 0.04 72 1007.6
20260505092017 60 225 0.9 2.6 0.02 0.04 0.04 77 1007.7
20260505091039 60 185 0.0 1.7 0.02 0.04 0.04 79 1007.8
20260505090030 59 81 0.0 0.9 0.03 0.04 0.04 80 1007.7
20260505085101 58 157 0.9 2.6 0.03 0.04 0.04 81 1007.7
20260505084043 58 103 0.9 1.7 0.03 0.03 0.03 82 1007.8
20260505083035 58 210 0.9 2.6 0.03 0.03 0.03 82 1007.9
20260505082027 58 336 0.0 1.7 0.02 0.02 0.02 81 1007.9
20260505081018 58 216 0.9 2.6 0.02 0.02 0.02 82 1008.0
20260505080040 57 231 0.9 3.5 0.01 0.01 0.01 83 1008.3
20260505075032 58 200 1.7 3.5 0.01 0.01 0.01 82 1008.3
20260505074043 58 212 1.7 3.5 0.00 0.00 0.00 79 1008.3
20260505073045 58 208 1.7 3.5 0.00 0.00 0.00 76 1008.4
20260505072036 58 220 0.9 1.7 0.00 0.00 0.00 76 1008.3
20260505071027 58 341 1.7 3.5 0.00 0.00 0.00 77 1008.3
20260505070019 57 198 1.7 3.5 0.00 0.00 0.00 78 1008.3
20260505065042 58 184 2.6 5.2 0.00 0.00 0.00 79 1008.4
20260505064033 58 205 1.7 4.3 0.00 0.00 0.00 76 1008.4
20260505063024 58 359 3.5 5.2 0.00 0.00 0.00 79 1008.2
20260505062131 57 328 1.7 4.3 0.00 0.00 0.00 79 1008.2
20260505061038 57 331 1.7 3.5 0.00 0.00 0.00 79 1008.3
20260505060029 57 261 0.9 3.5 0.00 0.00 0.00 79 1008.2
20260505055021 57 343 1.7 3.5 0.00 0.00 0.00 81 1008.0
20260505054036 56 339 2.6 3.5 0.00 0.00 0.00 81 1008.1
20260505053028 56 14 0.9 3.5 0.00 0.00 0.00 81 1008.1
20260505052019 55 360 1.7 3.5 0.00 0.00 0.00 82 1008.1
20260505051101 55 72 1.7 2.6 0.00 0.00 0.00 83 1008.3
20260505041019 54 161 1.7 3.5 0.00 0.00 0.00 84 1008.3
20260505040041 53 193 0.9 3.5 0.00 0.00 0.00 86 1008.1
20260505035053 53 315 1.7 3.5 0.00 0.00 0.00 86 1008.2
20260505034023 53 331 1.7 3.5 0.00 0.00 0.00 85 1008.2